Staples, MN

8:53 AM CDT on April 27, 2017 (GMT -0500)
Staples Municipal

Weather History for KSAZ - January, 2014

Change the Weather History Date:

Friday, January 24, 2014

  Actual Average Record
Temperature  
Mean Temperature 17 °F -  
Max Temperature 28 °F 17 °F 33 °F (2005)
Min Temperature 6 °F 1 °F -23 °F (2008)
Degree Days  
Heating Degree Days 48    
Moisture  
Dew Point 15 °F    
Average Humidity 79    
Maximum Humidity 100    
Minimum Humidity 44    
Precipitation  
Precipitation 0.00 in - - ()
Sea Level Pressure  
Sea Level Pressure 29.60 in    
Wind  
Wind Speed 14 mph (West)    
Max Wind Speed 28 mph    
Max Gust Speed 37 mph    
Visibility 8 miles    
Events Snow    
Averages and records for this station are not official NWS values.
T = Trace of Precipitation, MM = Missing Value Source: NWS Daily Summary

Daily Weather History Graph

Daily Weather History Graph

Search for Another Location

Airport or City:

Trip Planner

Search our weather history database for the weather conditions in past years. The results will help you decide how hot, cold, wet, or windy it might be!

Date:

Astronomy

Jan. 24, 2014 Rise Set
Actual Time 7:51 AM CST 5:11 PM CST
Civil Twilight 7:18 AM CST 5:44 PM CST
Nautical Twilight 6:41 AM CST 6:21 PM CST
Astronomical Twilight 6:06 AM CST 6:57 PM CST
Moon 1:14 AM CST (1/24) 11:34 AM CST (1/24)
Length of Visible Light 10h 26m
Length of Day
9h 20m
Last Quarter, 44% of the Moon is Illuminated
Jan 24
Last Quarter
Jan 30
New
Feb 6
First Quarter
Feb 14
Full
Feb 22
Last Quarter

Hourly Weather History & Observations

Time (CST) Temp. Windchill Dew Point Humidity Pressure Visibility Wind Dir Wind Speed Gust Speed Precip Events Conditions
12:14 AM 6.8 °F -11.3 °F -2.2 °F 67% 29.88 in 10.0 mi SSW 16.1 mph 25.3 mph N/A   Overcast
12:33 AM 6.8 °F -12.4 °F -2.2 °F 67% 29.84 in 7.0 mi SSW 18.4 mph 25.3 mph N/A   Overcast
12:53 AM 8.6 °F -8.9 °F -2.2 °F 62% 29.83 in 10.0 mi SSW 16.1 mph 25.3 mph N/A   Overcast
1:14 AM 10.4 °F -5.4 °F -0.4 °F 62% 29.82 in 10.0 mi SSW 13.8 mph 21.9 mph N/A   Overcast
1:33 AM 10.4 °F -4.1 °F -0.4 °F 62% 29.80 in 10.0 mi SSW 11.5 mph 17.3 mph N/A   Overcast
1:53 AM 10.4 °F -3.3 °F 3.2 °F 73% 29.78 in 1.8 mi SW 10.4 mph 17.3 mph N/A Snow Light Snow
2:14 AM 10.4 °F -4.1 °F 6.8 °F 85% 29.76 in 2.5 mi SW 11.5 mph 19.6 mph N/A Snow Light Snow
2:33 AM 12.2 °F -1.8 °F 8.6 °F 85% 29.76 in 2.5 mi SW 11.5 mph 20.7 mph N/A Snow Light Snow
2:54 AM 12.2 °F -1.8 °F 10.4 °F 92% 29.75 in 7.0 mi SW 11.5 mph - N/A   Overcast
3:14 AM 14.0 °F 1.2 °F 10.4 °F 86% 29.74 in 4.0 mi SW 10.4 mph - N/A   Overcast
3:33 AM 15.8 °F 3.4 °F 12.2 °F 86% 29.73 in 10.0 mi SW 10.4 mph - N/A   Overcast
3:54 AM 15.8 °F 3.4 °F 12.2 °F 86% 29.70 in 10.0 mi SW 10.4 mph - N/A   Overcast
4:14 AM 17.6 °F 5.7 °F 14.0 °F 86% 29.70 in 10.0 mi WSW 10.4 mph - N/A   Overcast
4:33 AM 17.6 °F 5.7 °F 14.0 °F 86% 29.68 in 10.0 mi SW 10.4 mph - N/A   Overcast
4:54 AM 17.6 °F 5.7 °F 14.0 °F 86% 29.67 in 10.0 mi WSW 10.4 mph 16.1 mph N/A   Overcast
5:13 AM 19.4 °F 8.6 °F 14.0 °F 80% 29.68 in 10.0 mi WSW 9.2 mph - N/A   Overcast
5:34 AM 19.4 °F 11.5 °F 14.0 °F 80% 29.67 in 10.0 mi WSW 5.8 mph - N/A   Overcast
5:53 AM 19.4 °F 11.5 °F 15.8 °F 86% 29.67 in 10.0 mi WSW 5.8 mph - N/A   Overcast
6:13 AM 21.2 °F 8.3 °F 15.8 °F 80% 29.68 in 10.0 mi West 13.8 mph - N/A   Overcast
6:34 AM 21.2 °F 10.1 °F 15.8 °F 80% 29.67 in 10.0 mi West 10.4 mph - N/A   Overcast
6:54 AM 21.2 °F 11.7 °F 17.6 °F 86% 29.66 in 10.0 mi West 8.1 mph - N/A   Overcast
7:13 AM 21.2 °F 10.9 °F 17.6 °F 86% 29.66 in 10.0 mi West 9.2 mph - N/A   Overcast
7:34 AM 21.2 °F 10.9 °F 17.6 °F 86% 29.65 in 10.0 mi West 9.2 mph - N/A   Overcast
7:54 AM 21.2 °F 10.9 °F 19.4 °F 93% 29.64 in 10.0 mi West 9.2 mph - N/A   Overcast
8:13 AM 23.0 °F 12.4 °F 19.4 °F 86% 29.63 in 10.0 mi West 10.4 mph - N/A   Overcast
8:34 AM 23.0 °F 12.4 °F 19.4 °F 86% 29.62 in 10.0 mi West 10.4 mph - N/A   Overcast
8:53 AM 24.8 °F 15.3 °F 21.2 °F 86% 29.61 in 10.0 mi WSW 9.2 mph - N/A   Overcast
9:14 AM 24.8 °F 15.3 °F 21.2 °F 86% 29.61 in 10.0 mi West 9.2 mph - N/A   Overcast
9:34 AM 24.8 °F 12.9 °F 21.2 °F 86% 29.61 in 10.0 mi West 13.8 mph - N/A   Overcast
9:53 AM 24.8 °F 12.9 °F 21.2 °F 86% 29.61 in 10.0 mi West 13.8 mph - N/A   Overcast
10:14 AM 24.8 °F 12.4 °F 21.2 °F 86% 29.60 in 10.0 mi West 15.0 mph - N/A   Overcast
10:34 AM 24.8 °F 12.4 °F 21.2 °F 86% 29.59 in 10.0 mi West 15.0 mph - N/A   Overcast
10:53 AM 24.8 °F 12.9 °F 21.2 °F 86% 29.58 in 10.0 mi West 13.8 mph - N/A   Overcast
11:13 AM 24.8 °F 13.4 °F 21.2 °F 86% 29.57 in 10.0 mi West 12.7 mph - N/A   Overcast
11:34 AM 24.8 °F 11.9 °F 21.2 °F 86% 29.55 in 10.0 mi West 16.1 mph - N/A   Overcast
11:53 AM 26.6 °F 14.7 °F 21.2 °F 80% 29.54 in 10.0 mi West 15.0 mph - N/A   Overcast
12:13 PM 26.6 °F 13.4 °F 21.2 °F 80% 29.53 in 7.0 mi West 18.4 mph 27.6 mph N/A   Overcast
12:34 PM 26.6 °F 14.3 °F 21.2 °F 80% 29.52 in 7.0 mi West 16.1 mph 23.0 mph N/A   Overcast
12:53 PM 26.6 °F 14.7 °F 21.2 °F 80% 29.52 in 10.0 mi WNW 15.0 mph 20.7 mph N/A   Overcast
1:13 PM 26.6 °F 15.2 °F 21.2 °F 80% 29.51 in 10.0 mi WNW 13.8 mph - N/A   Overcast
1:34 PM 26.6 °F 15.2 °F 21.2 °F 80% 29.49 in 10.0 mi WNW 13.8 mph 20.7 mph N/A   Overcast
1:53 PM 26.6 °F 14.7 °F 23.0 °F 86% 29.47 in 2.0 mi WNW 15.0 mph - N/A Snow Light Snow
2:13 PM 26.6 °F 16.8 °F 24.8 °F 93% 29.46 in 1.8 mi West 10.4 mph - N/A Snow Light Snow
2:34 PM 26.6 °F 17.5 °F 24.8 °F 93% 29.46 in 2.0 mi West 9.2 mph - N/A Snow Light Snow
2:54 PM 26.6 °F 16.8 °F 24.8 °F 93% 29.45 in 3.0 mi West 10.4 mph - N/A   Overcast
3:13 PM 26.6 °F 16.2 °F 26.6 °F 100% 29.44 in 3.0 mi West 11.5 mph - N/A Snow Light Snow
3:34 PM 28.4 °F 18.5 °F 26.6 °F 93% 29.44 in 1.8 mi West 11.5 mph - N/A Snow Light Snow
3:53 PM 28.4 °F 18.5 °F 26.6 °F 93% 29.44 in 4.0 mi WNW 11.5 mph - N/A Snow Light Snow
4:13 PM 28.4 °F 18.5 °F 26.6 °F 93% 29.44 in 7.0 mi WNW 11.5 mph - N/A Snow Light Snow
4:34 PM 28.4 °F 17.5 °F 26.6 °F 93% 29.45 in 10.0 mi WNW 13.8 mph - N/A   Overcast
4:54 PM 28.4 °F 15.8 °F 26.6 °F 93% 29.45 in 10.0 mi NW 18.4 mph - N/A Snow Light Snow
5:13 PM 28.4 °F 15.8 °F 26.6 °F 93% 29.46 in 7.0 mi NW 18.4 mph - N/A   Overcast
5:34 PM 28.4 °F 14.4 °F 24.8 °F 86% 29.47 in 4.0 mi NW 23.0 mph 28.8 mph N/A   Overcast
5:53 PM 28.4 °F 15.8 °F 24.8 °F 86% 29.47 in 10.0 mi NW 18.4 mph - N/A   Overcast
6:13 PM 28.4 °F 15.1 °F 24.8 °F 86% 29.48 in 4.0 mi NW 20.7 mph 32.2 mph N/A   Haze
6:34 PM 28.4 °F 15.8 °F 21.2 °F 74% 29.49 in 10.0 mi NW 18.4 mph 24.2 mph N/A   Overcast
6:53 PM 28.4 °F 15.4 °F 21.2 °F 74% 29.50 in 7.0 mi NW 19.6 mph 27.6 mph N/A   Mostly Cloudy
7:13 PM 28.4 °F 14.1 °F 21.2 °F 74% 29.50 in 5.0 mi NW 24.2 mph 28.8 mph N/A   Haze
7:34 PM 28.4 °F 16.2 °F 21.2 °F 74% 29.51 in 10.0 mi NW 17.3 mph 24.2 mph N/A   Mostly Cloudy
7:53 PM 28.4 °F 16.6 °F 21.2 °F 74% 29.50 in 10.0 mi NNW 16.1 mph 24.2 mph N/A   Overcast
8:14 PM 26.6 °F 12.4 °F 21.2 °F 80% 29.51 in 7.0 mi NNW 21.9 mph 27.6 mph N/A   Mostly Cloudy
8:33 PM 24.8 °F 8.4 °F 17.6 °F 74% 29.52 in 4.0 mi North 27.6 mph 33.4 mph N/A   Haze
8:53 PM 19.4 °F 2.1 °F 10.4 °F 68% 29.55 in 2.0 mi NNW 24.2 mph 36.8 mph N/A Snow Light Snow
9:13 PM 17.6 °F 3.2 °F 6.8 °F 63% 29.57 in 5.0 mi NNW 15.0 mph - N/A   Haze
9:33 PM 17.6 °F 1.3 °F 6.8 °F 63% 29.58 in 7.0 mi NW 19.6 mph 29.9 mph N/A   Clear
9:54 PM 15.8 °F 0.3 °F 5.0 °F 62% 29.59 in 10.0 mi NW 16.1 mph 25.3 mph N/A   Clear
10:13 PM 14.0 °F -4.3 °F 1.4 °F 57% 29.60 in 10.0 mi NW 21.9 mph 26.5 mph N/A   Clear
10:33 PM 12.2 °F -6.7 °F -4.0 °F 48% 29.61 in 10.0 mi NNW 21.9 mph 26.5 mph N/A   Clear
10:54 PM 10.4 °F -6.0 °F -5.8 °F 48% 29.62 in 10.0 mi NW 15.0 mph 26.5 mph N/A   Clear
11:13 PM 8.6 °F -11.4 °F -7.6 °F 48% 29.63 in 10.0 mi NW 21.9 mph 26.5 mph N/A   Clear
11:33 PM 8.6 °F -8.9 °F -9.4 °F 44% 29.64 in 7.0 mi NNW 16.1 mph 32.2 mph N/A   Clear
11:54 PM 8.6 °F -11.9 °F -9.4 °F 44% 29.65 in 10.0 mi NNW 23.0 mph 33.4 mph N/A   Clear